{"data":{"norad_id":59863,"epoch":"2026-09-21T09:09:39.231648Z","epoch_age_seconds":98257,"freshness":"FRESH","line1":"1 59863U 24098F   26264.38170407  .00001298  00000+0  56694-4 0  9997","line2":"2 59863  43.0022 252.9258 0001441 275.1176  84.9512 15.27581850131776","mean_motion":15.2758185,"eccentricity":0.0001441,"inclination_deg":43.0022,"raan_deg":252.9258,"arg_perigee_deg":275.1176,"mean_anomaly_deg":84.9512,"bstar":5.6694e-5,"rev_number":13177,"period_min":94.266634550548,"perigee_km":482.05486036152,"apogee_km":484.0322525979,"semimajor_km":6861.1805564797,"source":"CELESTRAK","updated_at":"2026-09-22T09:00:49.101143Z"}}